Regional Weather Roundup
Issued by NWS

Home | Current Version | Previous Version | Text Only | Print | Product List | Glossary Off
Versions: 1 2 3 4 5 6 7 8 9 10 11 12 13 14 15 16 17 18 19 20 21 22 23 24 25 26 27 28 29 30 31 32 33 34 35 36 37 38 39 40 41 42 43 44 45 46 47 48 49 50

000
ASUS43 KMPX 221010
RWRMN
WEATHER ROUNDUP FOR MINNESOTA
NATIONAL WEATHER SERVICE TWIN CITIES/CHANHASSEN MN
400 AM CST SAT NOV 22 2014


NOTE: "FAIR" INDICATES FEW OR NO CLOUDS BELOW 12,000 FEET WITH NO
SIGNIFICANT WEATHER AND/OR OBSTRUCTIONS TO VISIBILITY. N/A MEANS
CURRENT SKY AND/OR WEATHER CONDITIONS ARE NOT AVAILABLE.

MNZ060>063-068>070-221100-
   Twin Cities Metro

CITY           SKY/WX    TMP DP  RH WIND       PRES   REMARKS
TWIN CITIES    CLOUDY    36  32  85 S10       29.81F FOG
ST PAUL        CLOUDY    36  33  89 SW10      29.83F
CRYSTAL        MOCLDY    36  32  85 S8        29.79F FOG
BLAINE         MOCLDY    36  36 100 S10       29.78F
LAKEVILLE      CLOUDY    36  32  87 SW3       29.82F FOG
EDEN PRAIRIE   CLOUDY    35  33  92 SW14      29.79F FOG     WCI  26
SOUTH ST PAUL  CLOUDY    37  33  87 S8        29.82F FOG
LAKE ELMO      CLOUDY    36  34  93 S10       29.82F FOG
$$
MNZ001>005-007-008-013>017-022>024-027-028-221100-
   Northwest Minnesota

CITY           SKY/WX    TMP DP  RH WIND       PRES   REMARKS
BEMIDJI        PTCLDY    28  25  89 SW3       29.63S
HALLOCK        CLOUDY    34  30  86 CALM      29.60S
ROSEAU         CLOUDY    34  28  80 SW6       29.60R WCI  29
WARROAD        CLOUDY    32  28  86 S5        29.59S WCI  27
THIEF RVR FALL CLEAR     27  23  86 S8        29.62S WCI  18
CROOKSTON      CLEAR     23  21  93 S8        29.64S WCI  14
FOSSTON        PTCLDY    21  21 100 S12       29.64F WCI   9
DETROIT LAKES  PTCLDY    28  27  93 S6        29.68S WCI  22
MOORHEAD       PTCLDY    25  25 100 S10       29.67F WCI  15
PARK RAPIDS    PTCLDY    21  20  96 S5        29.66F WCI  15
MAHNOMEN       FAIR      27  24  89 S9        29.65S WCI  17
$$
MNZ006-009>011-018-025>026-221100-
   North Central Minnesota

CITY           SKY/WX    TMP DP  RH WIND       PRES   REMARKS
BAUDETTE       CLOUDY    32  27  81 CALM      29.58S
FLAG ISLAND    CLOUDY    30  27  86 SW5       29.57S WCI  25
INTL FALLS     CLOUDY    30  25  81 SW7       29.59S WCI  23
WASKISH        CLOUDY    34  30  86 SW7       29.61S WCI  28
BIG FORK       MOCLDY    28  25  86 S8        29.63F WCI  20
LONGVILLE      CLEAR     27  25  93 S5        29.67F WCI  21
GRAND RAPIDS   CLEAR     27  21  80 S6        29.65F WCI  20
CRANE LAKE     PTCLDY    27  25  93 S6        29.63S WCI  20
ORR            PTCLDY    27  21  80 S7        29.60S WCI  19
COOK           MOCLDY    27  25  93 SW7       29.64S WCI  19
WALKER         FAIR      28  25  89 S5        29.64F WCI  22
$$
MNZ012-019>021-037-221100-
   Northeast Minnesota

CITY           SKY/WX    TMP DP  RH WIND       PRES   REMARKS
DULUTH         PTCLDY    28  23  81 SW17      29.68F FOG     WCI  16
ELY            CLEAR     25  23  93 SW8       29.63S WCI  16
HIBBING        CLEAR     26  22  84 VRB3      29.66S
EVELETH        MOCLDY    27  23  86 SW6       29.66S WCI  20
DULUTH HARBOR  PTCLDY    32  27  80 SW13      29.73F WCI  22
TWO HARBORS    PTCLDY    28  25  86 SW7       29.67F WCI  21
SILVER BAY     PTCLDY    27  23  86 SW5       29.66F WCI  21
GRAND MARAIS     N/A     31  26  82 W9G16     29.67S WCI  23
G MARAIS ARPRT PTCLDY    19  18  93 S7        29.61S WCI  10
$$
MNZ029>031-032-039>041-046>048-054>057-064-221100-
   West Central Minnesota

CITY           SKY/WX    TMP DP  RH WIND       PRES   REMARKS
FERGUS FALLS   CLEAR     25  23  93 S8        29.73S WCI  16
WHEATON        CLEAR     27  23  86 S8        29.73S WCI  18
MORRIS         CLEAR     27  25  93 S7        29.71S WCI  19
ALEXANDRIA     CLEAR     28  25  88 SW12      29.71F WCI  18
ELBOW LAKE       N/A     25  23  94 S7        29.70F WCI  17
WADENA         PTCLDY    21  21 100 CALM      29.68F FOG
GLENWOOD       CLEAR     25  25 100 SW7       29.73S FOG     WCI  17
APPLETON       CLEAR     30  28  93 S7        29.73F WCI  23
BENSON         CLEAR     25  25 100 SW9       29.73F WCI  15
ORTONVILLE     CLEAR     27  23  86 CALM      29.72F
MADISON        CLEAR     36  30  80 SW6       29.74F
WILLMAR        FAIR      25  21  86 SE5       29.76F FOG     WCI  19
$$
MNZ033>034-036-042>043-049>051-058-059-221100-
   Central Minnesota

CITY           SKY/WX    TMP DP  RH WIND       PRES   REMARKS
ST CLOUD       PTCLDY    31  26  82 S8        29.75F WCI  23
SAUK CENTRE    FAIR      26  24  93 S9        29.72F WCI  17
PAYNESVILLE    CLEAR     25  24  96 SE5       29.75F WCI  20
AITKIN         CLEAR     27  21  80 S5        29.69F HAZE    WCI  21
PINE RIVER     CLEAR     19  19 100 SE3       29.72F FOG
BRAINERD       CLEAR     26  24  92 S7        29.71F WCI  18
STAPLES        CLEAR     21  21 100 S5        29.70S FOG     WCI  15
LONG PRAIRIE   FAIR      23  23 100 S5        29.71F WCI  17
LITTLE FALLS   CLEAR     28  25  86 S5        29.73F WCI  23
LITCHFIELD     CLEAR     30  28  93 S5        29.76F WCI  25
BUFFALO        PTCLDY    32  29  88 S6        29.79F WCI  26
MAPLE LAKE     PTCLDY    32  30  91 S6        29.77F WCI  26
$$
MNZ037-044-045-052-053-221100-
   East Central Minnesota

CITY           SKY/WX    TMP DP  RH WIND       PRES   REMARKS
PRINCETON      PTCLDY    34  28  80 S9        29.76F WCI  26
MORA             N/A    N/A N/A N/A MISG        N/A
CAMBRIDGE      MOCLDY    36  27  69 S7        29.75F
RUSH CITY      MOCLDY    32  30  90 S6        29.77F WCI  27
MOOSE LAKE     FAIR      28  27  93 CALM      29.71F
HINCKLEY       FAIR      32  28  86 CALM      29.75F
CLOQUET        PTCLDY    27  25  93 SW10      29.70F WCI  17
MCGREGOR       CLEAR     28  27  93 S8        29.71F WCI  20
$$
MNZ071>073-080-081-089-090-097-098-221100-
   Southwest Minnesota

CITY           SKY/WX    TMP DP  RH WIND       PRES   REMARKS
MONTEVIDEO     CLEAR     30  27  86 CALM      29.76F
GRANITE FALLS  CLEAR     28  25  86 S5        29.77F WCI  23
CANBY          CLEAR     35  30  82 SW12      29.74F WCI  27
MARSHALL       CLEAR     36  28  75 W9        29.76F
REDWOOD FALLS  CLEAR     32  27  81 SW6       29.77F WCI  26
OLIVIA         CLEAR     30  27  86 S9        29.77F WCI  22
PIPESTONE      CLEAR     28  27  93 S7        29.78S FOG     WCI  21
WINDOM         FOG       36  34  93 SW12G18   29.79F VSB 1
WORTHINGTON    CLOUDY    34  34 100 SW20G25   29.81S VSB 1/2 WCI  22
JACKSON        CLOUDY    36  34  93 SW16      29.82F FOG
TRACY          CLEAR     33  30  88 W3        29.77F
SLAYTON        MOCLDY    31  31 100 SW18      29.78F FOG     WCI  19
$$
MNZ065>067-074>077-082>085-091>093-221100-
   South Central Minnesota

CITY           SKY/WX    TMP DP  RH WIND       PRES   REMARKS
MANKATO        CLOUDY    36  32  87 S9        29.83S
NEW ULM        CLEAR     32  30  93 SW5       29.80S FOG     WCI  27
ST JAMES       CLOUDY    37  36  93 S9        29.83S FOG
FAIRMONT       CLOUDY    34  30  86 S9        29.83F VSB 1/2 WCI  26
GLENCOE        CLEAR     32  32  99 S8        29.78F FOG     WCI  25
FARIBAULT      CLOUDY    36  34  93 S10G16    29.84S FOG
OWATONNA       CLOUDY    36  34  93 S15G22    29.84F FOG
WASECA         CLOUDY    34  30  86 S14       29.85F WCI  24
ALBERT LEA     FOG       36  36 100 S13G18    29.85F VSB 1
$$
MNZ078>079-086>088-094>096-221100-
   Southeast Minnesota

CITY           SKY/WX    TMP DP  RH WIND       PRES   REMARKS
ROCHESTER      CLOUDY    33  31  92 SW20      29.86F FOG     WCI  21
RED WING         N/A     36  32  87 SW7       29.85F FOG
STANTON        CLOUDY    37  33  87 SW14      29.83S FOG
DODGE CENTER   CLOUDY    34  34 100 SW18      29.84F FOG     WCI  23
WINONA         CLOUDY    36  32  87 SW6       29.90F
AUSTIN         FOG       34  32  93 S15       29.86F VSB 1   WCI  24
PRESTON        CLOUDY    32  31  95 S14       29.89F FOG     WCI  22
$$
ABBREVIATIONS USED IN REMARKS
   TC - TEMPERATURES IN CELSIUS
  WCI - WIND CHILL INDEX
   HX - HEAT INDEX
  VSB - VISIBILITY
$$


USA.gov is the U.S. government's official web portal to all federal, state and local government web resources and services.